STARLINK-32628, 62122

Orbit data source: Space-Track

STARLINK-32628, 62122 is a payload satellite owned by SpaceX/Seattle (US) in LEO that was launched on Wed, 27 Nov 2024 UTC via an FALCON 9 launch vehicle from the Air Force Eastern Test Range (AFETR). Payload-class satellites include a variety of spacecraft equipped with specific instruments for various scientific and technological missions. These include communications satellites like Starlink; space stations such as the ISS; scientific satellites like the Hubble; Earth observation satellites from companies like Planet Labs, Umbra, and HawkEye 360; GPS; miniature CubeSats for education and research; and military/defense satellites.

Loading next visibility...
Identifier
62122, 2024-222J
Orbit
LEO
Country
Flag of USUS
Related business
Manufacturer
SpaceX/Seattle
Mission
Operational Commercial Communications
Bus & Motor
STARLINK V2M, Unknown motor
Mass
730 kg wet, ~700 kg dry
Launch date (UTC)
2024-11-27 (2 years ago)
Launch vehicle
FALCON 9
Launch site
Air Force Eastern Test Range (AFETR)
Object type
Payload
Rocket body
Debris
Shape & HBR
Box + 2 Pan, 17.7 m
Radar Cross Section
33.884 m², Large (>1 m²)

Expand to show TLE details & history
Last TLE update: 13 hours ago

TLE from 13 hours ago
0 STARLINK-32628
1 62122U 24222J   26171.37368963  .00005532  00000-0  21038-3 0  9999
2 62122  43.0020 276.2422 0001057 261.7879  98.2852 15.27583400 88625
Epoch: 2026-06-20T08:58Z
TLE epoch observation values (Epoch: 2026-06-20T08:58:06.784Z)
Latitude
-0.00005°
Longitude
-126.87536°
Altitude
482.919 km
Speed
7.626 km/s
True Right ascension
18h 24m 58s
True Declination
0° 00' 00"
Sunlit
Object was in full shadow at epoch
Visualization orbit readout
Latitude
Unknown
Longitude
Unknown
Altitude
Unknown
Speed
Unknown
Apparent Right ascension
Unknown
Apparent Declination
Unknown
Sunlit
N/A
Visualization observer readout
Local Sidereal Time
08:33:38
Azimuth
Unknown
Elevation
Unknown
Doppler factor
Unknown
Orbital elements
Apogee altitude
485.709 km
Perigee altitude
484.258 km
Semi-major axis
6,863.121 km
Eccentricity
0.00011
Inclination
43.002°
RAAN
276.2422°
Arg. of periapsis
261.7879°
True anomaly
98.29719°
Mean anomaly
98.2852°
Eccentric anomaly
98.29119°
Mean motion
3.81734 °/min
Orbital period
94.31 mins
BSTAR
0.00021038
Loading maneuver chart data...
Computing Atmospheric mass density...
Loading historical data...
Loading historical data...
Loading historical data...
Loading historical data...
Loading historical data...
Loading historical data...
Loading historical data...

Documentation

Showing up to 5 results
|